Regional Weather Roundup
Issued by NWS

Home | Current Version | Previous Version | Text Only | Print | Product List | Glossary On
Versions: 1 2 3 4 5 6 7 8 9 10 11 12 13 14 15 16 17 18 19 20 21 22 23 24 25 26 27 28 29 30 31 32 33 34 35 36 37 38 39 40 41 42 43 44 45 46 47 48 49 50
000
ASUS43 KLSX 301907
RWRMO

WEATHER SUMMARY FOR MISSOURI
NATIONAL WEATHER SERVICE SPRINGFIELD MO
200 PM CDT THU OCT 30 2014

NOTE: "FAIR" INDICATES FEW OR NO CLOUDS BELOW 12,000 FEET WITH NO
       SIGNIFICANT WEATHER AND/OR OBSTRUCTIONS TO VISIBILITY.
       CURRENT SKY AND/OR WEATHER CONDITIONS ARE NOT AVAILABLE FOR
       CHILLICOTHE AND FARMINGTON.

MOZ001>031-035>038-043-044-053-054-302000-
...NORTHERN AND WESTERN MISSOURI...

CITY           SKY/WX    TMP DP  RH WIND       PRES   REMARKS
KANSAS CTY INT MOSUNNY   65  39  38 NW18G26   30.01F
KANSAS C DTWN  SUNNY     68  37  32 N14G24    30.00F
LEE`S SUMMIT   SUNNY     67  40  37 NW14      30.00F
ST JOSEPH      SUNNY     67  40  37 N18G29    30.02F
CHILLICOTHE      N/A     64  42  44 VRB5      29.99F
KIRKSVILLE     SUNNY     61  44  53 NE5       29.98F

$$
MOZ066>068-077>081-088>096-101>105-302000-
...SOUTHWEST MISSOURI...

CITY           SKY/WX    TMP DP  RH WIND       PRES   REMARKS
SPRINGFIELD    CLOUDY    66  46  48 W15       29.99F
JOPLIN         SUNNY     68  44  42 W13G22    30.04F

$$
MOZ032>034-039>042-045>050-055>058-069>072-302000-
...CENTRAL MISSOURI...

CITY           SKY/WX    TMP DP  RH WIND       PRES   REMARKS
COLUMBIA       CLOUDY    51  46  83 S12       29.98F
JEFFERSON CITY LGT RAIN  49  44  83 SE9       29.99F
ROLLA          CLOUDY    52  45  77 S12       30.00F
SEDALIA        MOSUNNY   60  49  66 SW8       30.00F
WHITEMAN AFB   MOSUNNY   64  45  51 NW9       29.98F
OSAGE BEACH    CLOUDY    54  45  71 SE9       29.99F

$$
MOZ051-052-059>065-302000-
...EAST CENTRAL MISSOURI...

CITY           SKY/WX    TMP DP  RH WIND       PRES   REMARKS
ST LOUIS INTL  PTSUNNY   59  37  44 S5        30.06F
SPIRIT OF STL  PTSUNNY   60  38  43 CALM      30.04F
ST CHARLES     CLOUDY    54  45  71 N5        30.05F

$$
MOZ072>076-082>087-097>100-106>115-302000-
...SOUTH CENTRAL AND SOUTHEAST MISSOURI...

CITY           SKY/WX    TMP DP  RH WIND       PRES   REMARKS
CAPE GIRARDEAU SUNNY     61  39  44 S8        30.08F
FARMINGTON     CLOUDY    59  37  44 SE9       30.07F
POPLAR BLUFF   MOSUNNY   65  39  38 SW8       30.07F
WEST PLAINS    LGT RAIN  61  38  42 S7        30.06F

$$



USA.gov is the U.S. government's official web portal to all federal, state and local government web resources and services.